Regional Weather Roundup
Issued by NWS

Home | Current Version | Previous Version | Graphics & Text | Print | Product List | Glossary On
Versions: 1 2 3 4 5 6 7 8 9 10 11 12 13 14 15 16 17 18 19 20 21 22 23 24 25 26 27 28 29 30 31 32 33 34 35 36 37 38 39 40 41 42 43 44 45 46 47 48 49 50
000
ASUS43 KFSD 202202
RWRSD

WEATHER ROUNDUP FOR SOUTH DAKOTA
NATIONAL WEATHER SERVICE SIOUX FALLS SD
500 PM CDT FRI OCT 20 2017

NOTE: "FAIR" INDICATES FEW OR NO CLOUDS BELOW 12,000 FEET WITH NO
SIGNIFICANT WEATHER AND/OR OBSTRUCTIONS TO VISIBILITY.


SDZ001>005-009-010-012>017-202300-
NORTHWEST AND NORTH CENTRAL SOUTH DAKOTA

CITY           SKY/WX    TMP DP  RH WIND       PRES   REMARKS
BUFFALO          N/A     84  29  13 SW24G31   29.20F
FAITH            N/A     84  35  17 S23G31    29.29
MOBRIDGE       MOSUNNY   77  52  41 SE20G25   29.31F
$$

SDZ012>016-024>037-041>051-057-063-072>074-202300-
SOUTHWEST AND SOUTH CENTRAL SOUTH DAKOTA

CITY           SKY/WX    TMP DP  RH WIND       PRES   REMARKS
RAPID CTY ARPT MOSUNNY   83  36  18 SW23      29.34F
PIERRE         MOSUNNY   76  52  43 S21G28    29.36S
CUSTER         SUNNY     71  30  21 W16G25    29.49F
ELLSWORTH AFB  SUNNY     83  37  19 SW17      29.33F
PHILIP         SUNNY     82  46  28 S20       29.33F
PINE RIDGE     SUNNY     81  38  21 S17G24    29.42F
SPEARFISH      FAIR      77  32  19 SW16G33   29.36F
WINNER         FAIR      75  55  49 S23G36    29.46S
$$

SDZ004>011-016>023-039-040-202300-
NORTHEAST SOUTH DAKOTA

CITY           SKY/WX    TMP DP  RH WIND       PRES   REMARKS
ABERDEEN       PTSUNNY   76  54  46 S25G38    29.42F
WATERTOWN      PTSUNNY   71  55  56 S30G37    29.52F
BROOKINGS      MOSUNNY   73  55  53 S25       29.56F
SISSETON         N/A     74  55  51 S20G30    29.47F
$$

SDZ017-020-022-023-036>040-048>070-202300-
SOUTHEAST SOUTH DAKOTA

CITY           SKY/WX    TMP DP  RH WIND       PRES   REMARKS
SIOUX FALLS    PTSUNNY   75  56  51 S30G43    29.59F
HURON          PTSUNNY   75  54  47 S17G28    29.47F
CHAMBERLAIN    SUNNY     76  56  50 S24G35    29.46F
MITCHELL       CLOUDY    77  54  44 S29G38    29.51F
YANKTON        SUNNY     77  57  50 S28G41    29.55F
$$

ABBREVIATIONS USED IN REMARKS
   TC - TEMPERATURE IN CELSIUS
  WCI - WIND CHILL INDEX
   HX - HEAT INDEX
  VSB - VISIBILITY





USA.gov is the U.S. government's official web portal to all federal, state and local government web resources and services.